TimePDT,TemperatureF,Dew PointF,Humidity,Sea Level PressureIn,VisibilityMPH,Wind Direction,Wind SpeedMPH,Gust SpeedMPH,PrecipitationIn,Events,Conditions,WindDirDegrees,DateUTC
12:53 AM,57.9,46.9,67,29.97,10.0,WNW,8.1,-,N/A,,Clear,300,2012-10-08 07:53:00
1:53 AM,57.0,48.0,72,29.98,10.0,WNW,10.4,-,N/A,,Clear,300,2012-10-08 08:53:00
2:53 AM,57.0,48.0,72,29.98,10.0,WNW,6.9,-,N/A,,Clear,300,2012-10-08 09:53:00
3:53 AM,54.0,46.9,77,29.98,10.0,NW,4.6,-,N/A,,Clear,310,2012-10-08 10:53:00
4:53 AM,51.1,45.0,80,29.99,10.0,Calm,Calm,-,N/A,,Clear,0,2012-10-08 11:53:00
5:53 AM,48.9,43.0,80,29.99,10.0,Calm,Calm,-,N/A,,Clear,0,2012-10-08 12:53:00
6:53 AM,50.0,46.0,86,30.01,10.0,Calm,Calm,-,N/A,,Clear,0,2012-10-08 13:53:00
7:53 AM,50.0,45.0,83,30.02,10.0,Calm,Calm,-,N/A,,Clear,0,2012-10-08 14:53:00
8:53 AM,55.0,46.0,72,30.04,10.0,Calm,Calm,-,N/A,,Clear,0,2012-10-08 15:53:00
9:53 AM,61.0,48.0,62,30.03,10.0,WNW,6.9,-,N/A,,Clear,300,2012-10-08 16:53:00
10:53 AM,66.0,46.9,50,30.02,10.0,NNW,11.5,-,N/A,,Clear,330,2012-10-08 17:53:00
11:53 AM,70.0,45.0,41,30.01,10.0,NW,9.2,-,N/A,,Clear,320,2012-10-08 18:53:00
12:53 PM,73.0,42.1,33,29.99,10.0,WNW,8.1,-,N/A,,Clear,290,2012-10-08 19:53:00
1:53 PM,75.9,45.0,33,29.96,10.0,Variable,4.6,-,N/A,,Clear,0,2012-10-08 20:53:00
2:53 PM,75.9,45.0,33,29.94,10.0,Variable,3.5,-,N/A,,Clear,0,2012-10-08 21:53:00
3:53 PM,77.0,45.0,32,29.94,10.0,Variable,3.5,-,N/A,,Clear,0,2012-10-08 22:53:00
4:53 PM,75.0,46.0,36,29.94,10.0,SSW,12.7,-,N/A,,Clear,200,2012-10-08 23:53:00
5:53 PM,71.1,46.0,41,29.94,10.0,SSW,11.5,-,N/A,,Clear,210,2012-10-09 00:53:00
6:53 PM,69.1,44.1,40,29.96,10.0,NW,11.5,-,N/A,,Clear,310,2012-10-09 01:53:00
7:12 PM,66.2,46.4,49,29.98,10.0,NW,12.7,-,N/A,,Clear,320,2012-10-09 02:12:00
7:53 PM,64.9,48.0,54,29.98,10.0,WNW,10.4,-,N/A,,Clear,300,2012-10-09 02:53:00
8:53 PM,62.1,50.0,65,30.00,10.0,NW,11.5,-,N/A,,Clear,310,2012-10-09 03:53:00
9:53 PM,60.1,48.9,67,30.01,10.0,WNW,11.5,-,N/A,,Clear,300,2012-10-09 04:53:00
10:53 PM,59.0,48.9,69,30.02,10.0,WNW,11.5,-,N/A,,Clear,290,2012-10-09 05:53:00
11:53 PM,57.0,48.0,72,30.02,10.0,West,4.6,-,N/A,,Clear,280,2012-10-09 06:53:00